Вернуться в каталог

CZ-6A DEB

АктивенSSO
NORAD 54539·DEBRIS·🇨🇳 China

Запущен Nov 11, 2022 с Taiyuan Satellite Launch Center

Loading…

Ближайшие Пролёты (ближайшие 24 часа)

TLE

СвежийSource: Space-Track

Эпоха: Sep 14, 2026, 10:57 UTC

1 54539U 22151KP  26257.45691707 -.00000069  00000-0 -14412-4 0  9991
2 54539  98.8505 254.2747 0047553  76.6484 283.9982 14.09219263197222

Отслеживайте CZ-6A DEB в реальном времени с AllMySat

Download on the App Store